Location: *
(49.9853°N, 3.5569°E)
Time: 07:25:02
(UTC+00:00)

Cosmos 1624 Rocket - Pass Details

Date: 22 September 2019
Orbit: 757 x 784 km, 74.0° (Epoch: 17 October)

Event Time Altitude Azimuth Distance (km) Brightness Sun altitude
Rises 19:17:55 0° 202° (SSW) 3,205 7.3 -15.5°
Reaches altitude 10° 19:20:16 10° 203° (SSW) 2,282 6.5 -15.9°
Maximum altitude 19:25:27 89° 290° (WNW) 765 3.9 -16.7°
Drops below altitude 10° 19:30:41 10° 24° (NNE) 2,300 6.5 -17.4°
Sets 19:33:04 0° 24° (NNE) 3,231 7.2 -17.8°
